Miscellaneous Local Product
Issued by NWS Hastings, NE

Home | Current Version | Previous Version | Graphics & Text | Print | Product List | Glossary On
Versions: 1 2 3 4 5 6 7 8 9 10 11 12 13 14 15 16 17 18 19 20 21 22 23 24 25 26 27 28 29 30 31 32 33 34 35 36 37 38 39 40 41 42 43 44 45 46 47 48 49 50
000
AXUS43 KGID 210802
MISGRI

GID CWA HOURLY WEATHER ROUNDUP
NATIONAL WEATHER SERVICE HASTINGS NE
300 AM CDT SUN MAY 21 2017

NOTE: "FAIR" INDICATES FEW OR NO CLOUDS BELOW 12,000 FEET WITH NO
SIGNIFICANT WEATHER AND/OR OBSTRUCTIONS TO VISIBILITY.

...SOUTH CENTRAL NEBRASKA...

CITY           SKY/WX    TMP DP  RH WIND       PRES   REMARKS
GRAND ISLAND   CLEAR     38  37  97 W10       30.04R WCI  31
HASTINGS       PTCLDY    41  35  79 W13       30.05R
KEARNEY        CLEAR     37  34  87 W5        30.05S WCI  34
ORD            CLEAR     37  33  85 W10       29.99F WCI  30
YORK           CLEAR     39  37  93 NW15      30.01S WCI  31
AURORA         CLEAR     38  37  96 W10       30.03R WCI  32
LEXINGTON      CLEAR     35  33  94 NW5       30.05R WCI  31
HOLDREGE       CLEAR     37  35  91 SW3       30.05S
HEBRON         CLEAR     42  37  84 W8        30.05R

...NEBRASKA PANHANDLE...

CITY           SKY/WX    TMP DP  RH WIND       PRES   REMARKS
CHADRON        CLEAR     36  34  92 W7        30.08R WCI  30
ALLIANCE       CLEAR     32  30  92 W8        30.08R WCI  25
SCOTTSBLUFF    MOCLDY    38  35  89 NW5       30.11R WCI  34
SIDNEY         CLOUDY    33  32  96 SW7       30.13R WCI  27

...WESTERN AND NORTH CENTRAL NEBRASKA...

CITY           SKY/WX    TMP DP  RH WIND       PRES   REMARKS
VALENTINE      CLEAR     33  30  88 W5        30.02F WCI  29
AINSWORTH      CLEAR     35  35 100 W7        30.01S WCI  29
ONEILL         CLOUDY    41  37  88 W14       29.98R
BROKEN BOW     CLEAR     36  34  92 CALM      30.03S
IMPERIAL       CLEAR     43  38  82 W8        30.10R
NORTH PLATTE   FOG       32  32 100 NW8       30.06R VSB 1/2 WCI  25
MCCOOK         CLEAR     38  37  97 W7        30.08R WCI  33

...EASTERN NEBRASKA...

CITY           SKY/WX    TMP DP  RH WIND       PRES   REMARKS
NORFOLK        CLOUDY    40  37  89 W14       29.95S WCI  32
SO SIOUX CITY  CLOUDY    41  39  93 NW15      29.91R
TEKAMAH        CLOUDY    43  37  79 W18G25    29.94R
COLUMBUS       CLOUDY    41  36  81 W14G20    29.99S
ALBION         PTCLDY    42  38  85 W9        29.99S
OMAHA EPPLEY   CLOUDY    45  37  73 W15G23    29.95R
OFFUTT AFB     CLOUDY    45  38  76 W14       29.95R
MILLARD        CLOUDY    46  40  80 W10       29.96R
LINCOLN        CLOUDY    43  38  82 W13       30.01R
NEBRASKA CITY  CLOUDY    45  38  74 W17G23    29.99R
BEATRICE       CLEAR     42  39  90 W10       30.02S
FALLS CITY     PTCLDY    45  41  86 W13       29.99R

...NORTHERN KANSAS...

CITY           SKY/WX    TMP DP  RH WIND       PRES   REMARKS
GOODLAND       CLOUDY    42  40  92 W10       30.11R
HILL CITY      CLEAR     38  37  97 W6        30.10S WCI  33
NORTON         SUNNY     37  34  87 SW10      30.07S WCI  30
PHILLIPSBURG   CLEAR     36  36 100 W5        30.08F WCI  32
SMITH CENTER   CLEAR     34  34 100 W3        30.08F
HAYS           CLEAR     37  36  96 W6        30.11S WCI  32
RUSSELL        CLEAR     37  36  96 SW6       30.08F WCI  32
CONCORDIA      CLEAR     41  39  93 W12       30.07R
SALINA         CLEAR     45  39  79 W13       30.10S
TOPEKA         CLEAR     47  42  83 W9G16     30.03R



USA.gov is the U.S. government's official web portal to all federal, state and local government web resources and services.